RH
86 82 85 87 82 80 77 73 74 75 73 74 79 83 85 88 91 91 92 94 98 99 98 99 100 100 100 100 100 100 99 100 99 99 99 91 85 76 58 54 62 52 37 36 36 36 39 37 36 36 34 34 36 34 35 37 36 34 32 31 32 31 28 26 26 24 24 28 30 28 27 27 22 18 17 16 17 19 16 16 22 21 20 26 25 22 29
98 95 98 99 92 84 79 76 77 79 80 81 83 88 93 95 94 95 97 98 99 100 99 99 99 100 100 99 100 101 99 100 98 97 99 97 89 76 58 54 60 55 44 37 34 37 38 35 36 35 32 31 31 30 32 36 37 34 34 33 29 26 26 26 24 24 26 29 28 27 28 28 24 20 18 17 18 20 17 17 24 23 21 24 19 19 31
100 100 99 100 96 91 89 89 86 84 85 85 86 90 94 97 97 97 99 99 99 100 100 100 100 100 100 99 100 100 99 99 97 93 91 88 83 72 58 48 44 45 47 42 36 37 36 35 36 35 33 32 29 29 33 35 35 35 35 36 31 26 28 27 24 26 28 28 25 24 25 26 26 23 22 20 19 21 21 23 27 23 19 21 17 19 31
97 100 100 100 100 97 97 97 94 92 92 89 89 92 94 99 99 96 96 97 99 101 99 99 101 99 98 100 100 100 100 99 97 93 87 80 74 66 53 40 35 40 45 41 37 36 35 35 34 32 35 34 28 31 37 35 34 35 36 37 34 31 33 31 25 23 23 23 24 25 26 26 26 25 25 23 20 21 23 23 22 19 19 20 17 20 29
93 98 100 98 98 97 94 96 97 95 95 95 95 94 94 98 100 98 97 96 97 100 97 96 99 99 98 100 99 99 100 99 97 94 89 83 74 64 50 38 39 45 44 41 39 36 33 33 33 34 39 36 28 29 35 35 33 33 33 34 35 33 31 30 32 33 30 29 31 32 28 25 26 27 27 28 25 23 24 23 20 19 21 23 22 23 26
93 97 100 97 98 98 94 95 98 97 98 98 98 98 96 98 99 98 99 98 99 99 96 93 94 95 97 98 98 99 98 95 94 91 89 87 80 74 62 43 37 45 47 45 43 38 35 36 38 42 42 35 30 31 32 33 33 32 30 33 35 31 28 31 36 37 36 36 36 35 31 26 26 27 26 28 29 25 26 26 22 23 25 25 27 29 25
97 99 100 99 100 99 96 94 95 96 97 96 98 100 98 97 99 99 99 100 98 95 92 89 89 93 96 97 98 98 93 92 94 90 89 91 87 82 70 45 35 42 45 46 46 43 42 42 43 47 45 36 33 35 34 32 33 30 30 36 38 32 29 33 33 31 34 37 32 31 35 34 31 28 25 27 28 27 31 30 25 28 29 25 29 31 26
98 98 99 101 99 97 94 91 92 93 93 92 95 99 99 97 98 99 99 99 96 91 87 83 86 95 96 94 97 97 94 97 98 91 90 93 88 81 69 51 41 42 43 48 48 41 41 44 43 42 44 42 38 37 35 34 33 31 34 40 39 32 31 32 29 28 33 36 31 31 37 39 36 32 28 27 27 27 31 30 28 32 32 28 32 34 30
95 96 98 100 97 93 91 89 88 88 88 87 87 92 97 99 99 98 96 97 97 93 87 82 86 90 87 84 89 92 94 99 98 93 91 92 90 85 76 65 57 48 44 47 43 33 34 40 38 37 42 45 43 43 40 34 33 36 42 44 34 27 33 38 30 25 29 36 39 38 38 37 36 34 33 33 31 30 32 33 34 35 33 33 35 33 30
90 92 96 99 96 90 89 89 88 84 83 83 81 82 86 91 96 99 98 98 98 95 91 89 90 88 83 82 81 82 88 93 94 93 90 91 94 90 80 76 73 62 49 42 37 31 30 32 30 32 36 36 38 44 41 33 30 34 40 42 35 28 33 38 32 23 26 37 43 41 37 35 35 35 36 38 38 36 37 38 35 31 32 36 35 30 27
88 87 91 97 97 90 86 87 87 82 79 80 79 78 78 81 86 92 95 98 100 96 93 93 91 87 87 83 73 70 79 84 84 86 89 92 95 89 82 85 87 75 56 41 34 32 30 28 29 29 28 29 35 42 41 34 30 31 34 35 36 33 30 34 32 23 26 40 44 37 31 34 39 38 33 32 33 31 33 33 27 24 28 32 31 28 27
86 83 85 91 92 87 83 83 84 82 78 78 79 78 76 77 79 83 88 93 98 99 97 95 90 86 88 84 68 61 69 75 75 80 87 92 94 92 91 94 94 86 71 51 37 32 30 26 26 28 27 31 38 38 37 37 32 29 32 33 34 35 31 34 35 23 26 43 44 33 33 40 45 43 35 29 28 26 27 28 25 24 26 25 24 24 24
85 81 81 85 85 81 79 80 81 81 80 77 77 77 76 76 76 78 82 86 91 96 99 99 93 86 86 85 74 62 59 63 68 75 82 87 90 93 96 94 87 85 83 68 46 36 37 32 27 30 33 39 44 35 30 38 36 28 28 31 35 36 30 33 38 30 32 43 38 32 42 48 44 39 36 34 30 26 26 27 25 24 24 23 23 22 22
83 81 79 81 81 76 74 76 78 79 80 77 74 73 75 76 76 76 77 78 80 85 91 96 97 93 88 84 80 71 60 56 61 68 75 83 87 88 91 90 82 82 88 80 58 48 52 47 40 42 43 44 48 43 36 40 40 34 30 27 31 36 33 33 38 38 37 38 32 34 45 46 38 34 36 37 35 30 27 27 26 24 23 23 23 22 21
81 81 79 79 79 72 68 72 74 75 79 78 73 70 71 73 75 75 75 73 72 75 83 87 90 93 92 85 81 79 67 54 54 60 65 73 81 85 85 84 86 88 89 82 69 62 64 58 47 45 43 39 42 49 51 49 43 39 38 32 30 37 38 34 36 40 38 31 29 34 37 35 34 33 35 39 41 38 34 34 34 29 22 21 23 22 21
78 80 78 77 78 71 64 66 69 69 73 76 74 70 68 69 72 72 71 71 71 72 76 79 79 85 90 87 82 79 69 54 53 65 71 69 72 80 80 79 86 91 85 81 78 70 65 60 49 42 43 40 40 47 55 58 54 47 40 36 34 38 42 39 35 39 39 32 30 32 31 32 37 36 35 37 41 44 44 40 36 30 22 20 22 21 21
76 78 76 74 75 72 64 62 64 65 66 69 71 69 66 66 68 69 67 69 71 70 68 69 73 80 88 89 85 81 74 60 55 65 72 66 65 73 76 75 81 85 83 86 86 75 65 59 50 43 45 48 48 49 50 56 64 59 47 43 42 40 44 45 37 36 40 37 30 27 28 35 39 34 31 31 34 43 48 41 37 35 28 24 22 21 21
76 77 76 73 72 72 66 61 62 63 62 61 63 66 65 63 64 66 66 66 69 70 67 65 70 77 86 91 88 82 77 67 57 59 64 60 59 68 72 72 77 83 85 87 87 79 70 64 60 55 51 49 50 52 50 52 62 65 58 55 53 47 44 42 35 33 38 40 35 27 27 35 37 31 30 31 33 41 43 38 38 39 33 28 25 22 23
75 77 77 73 70 70 67 62 60 61 59 56 54 56 58 59 61 62 64 65 68 70 68 65 67 73 82 89 88 83 78 70 62 67 77 74 64 63 66 68 71 77 78 80 84 81 72 70 71 65 58 57 56 54 55 56 60 64 65 62 59 53 47 42 38 35 34 36 35 30 29 33 34 31 31 31 34 41 42 39 40 39 32 29 27 24 23
71 75 76 74 71 69 67 63 60 58 58 55 50 46 46 51 56 59 62 64 66 68 67 64 64 69 77 82 84 84 83 77 70 73 82 81 67 59 67 73 72 71 73 75 80 78 71 74 76 67 63 68 62 53 56 60 58 58 65 67 64 58 47 39 38 37 36 37 36 33 33 35 33 30 30 29 31 37 40 39 41 39 33 32 31 28 26
59 71 74 74 72 69 66 64 60 58 58 56 52 47 44 44 48 55 61 63 63 64 64 62 62 65 70 76 82 87 88 85 80 78 79 75 65 64 77 83 76 71 72 75 79 78 75 77 77 68 66 67 59 53 59 63 58 53 55 59 64 61 50 42 41 40 38 38 37 36 38 38 32 28 28 27 27 30 31 32 37 39 35 33 33 31 29
40 58 68 74 75 71 68 65 62 60 59 56 53 52 49 44 43 49 58 61 61 62 63 61 61 63 65 69 75 83 88 87 85 86 85 80 71 70 78 80 73 69 67 72 81 81 76 76 75 71 69 66 60 60 59 55 56 58 51 48 56 60 54 50 55 55 46 38 39 43 43 38 32 28 27 26 27 29 30 32 36 38 37 35 34 33 33
23 40 55 66 73 75 72 66 63 62 61 58 55 52 50 46 42 45 53 57 58 61 61 59 58 61 65 66 67 72 77 81 84 86 89 86 78 74 76 77 77 73 65 70 83 81 73 75 76 73 74 72 67 66 60 50 56 66 61 54 55 54 50 52 62 65 54 42 42 45 42 37 31 30 31 31 30 30 32 36 38 37 36 36 35 35 34
13 26 40 52 64 73 75 70 64 62 62 61 58 54 50 45 40 39 46 51 53 56 59 57 54 56 60 64 66 67 69 72 75 77 82 85 81 78 79 81 82 79 71 73 81 76 69 71 69 67 72 70 64 63 59 53 58 63 60 59 57 49 47 57 66 64 57 53 52 47 42 40 36 33 35 36 35 33 34 38 41 39 37 35 34 33 32
10 15 28 40 51 63 72 73 68 63 62 62 60 56 52 49 43 38 42 49 53 55 56 55 53 53 57 60 65 68 69 69 68 67 71 79 80 79 80 81 83 84 81 80 78 71 67 69 68 71 75 67 62 67 65 59 60 58 56 66 70 59 53 61 67 64 62 65 62 52 46 46 44 43 43 41 40 40 39 41 46 46 42 39 36 35 34
13 8 18 32 42 52 63 70 71 67 63 62 62 60 55 51 44 40 43 52 57 55 53 52 52 54 58 60 62 66 68 67 66 64 64 69 74 77 78 80 84 86 85 85 82 76 71 70 71 77 78 68 64 72 72 65 62 58 58 66 68 61 59 63 65 65 68 70 65 56 53 52 49 48 48 45 45 48 48 48 49 47 43 40 36 35 35
20 7 10 22 34 43 52 62 69 70 66 64 64 62 59 53 45 43 49 57 58 54 49 47 50 54 58 60 60 62 64 64 62 62 62 62 67 73 78 82 86 87 84 83 82 78 74 71 71 74 75 69 66 70 71 68 65 65 70 70 62 61 69 68 63 66 73 74 68 62 63 66 59 50 48 48 48 51 53 52 49 44 40 38 35 34 33
29 10 6 14 26 36 43 52 63 69 68 68 66 63 63 57 46 46 57 63 61 57 48 42 46 51 53 54 54 55 58 59 58 58 59 59 61 67 75 81 85 86 84 80 77 73 72 74 75 70 66 68 71 72 72 71 69 72 80 79 70 70 75 72 70 74 77 74 68 61 62 68 63 52 50 51 49 49 50 49 47 44 41 39 38 36 35
39 16 5 8 19 31 38 44 55 64 67 70 70 67 67 60 48 49 61 65 61 56 48 42 46 49 46 48 51 52 52 53 54 55 56 55 56 61 69 75 80 84 82 78 73 70 69 71 72 67 62 68 76 78 75 75 77 79 81 75 69 69 69 67 70 75 74 71 67 61 58 60 57 53 54 53 51 50 50 48 47 46 44 42 41 39 38
49 24 8 5 11 25 34 39 47 57 64 69 72 71 69 63 54 54 59 59 57 53 44 40 47 49 44 45 49 49 48 50 53 55 54 53 54 57 58 63 71 77 79 76 71 68 67 68 68 67 66 68 71 75 79 81 81 79 74 66 64 70 73 71 70 73 73 73 70 65 63 61 58 56 55 52 51 52 51 49 49 48 46 45 43 42 42
58 31 12 5 7 18 30 36 40 50 59 66 70 73 72 66 59 58 58 57 58 54 42 38 46 48 44 45 46 46 47 51 54 55 52 48 52 55 53 53 60 68 73 73 70 66 67 69 69 68 69 69 68 71 77 80 79 78 74 67 63 68 74 77 77 76 76 76 74 72 71 68 65 63 61 58 58 57 54 54 52 49 47 47 46 46 49
65 38 15 5 5 12 25 34 37 43 52 59 65 70 73 67 60 58 57 57 61 58 43 37 44 48 47 48 46 44 45 46 46 48 48 42 43 50 51 48 53 61 66 68 70 70 67 67 69 69 68 68 65 61 63 71 75 75 72 68 65 65 66 69 73 74 74 74 74 73 72 71 69 68 67 66 66 67 65 63 60 57 56 57 55 55 55
68 43 18 6 5 9 20 32 36 37 43 52 60 67 69 66 61 57 53 55 64 63 48 37 41 47 48 48 46 44 44 42 39 43 45 40 38 47 52 48 47 53 59 63 68 71 69 67 68 67 64 64 60 52 52 62 67 64 62 65 67 66 62 59 60 61 61 63 65 66 67 68 66 65 66 67 67 68 68 66 65 63 62 62 61 59 58
69 45 19 7 5 7 16 28 35 36 38 44 54 62 66 64 61 57 53 54 64 67 53 40 40 45 48 49 48 46 45 44 43 43 42 37 37 46 53 52 47 47 51 54 57 61 63 63 61 61 61 61 56 49 52 57 54 51 55 60 61 63 63 59 55 52 47 45 48 51 55 59 60 59 60 59 58 58 59 60 62 62 61 61 62 61 61
70 46 19 7 5 6 13 26 34 35 36 39 48 59 64 64 62 58 52 52 61 66 57 45 41 43 46 51 54 50 44 43 44 43 38 34 34 36 42 51 55 50 48 49 50 50 51 50 49 55 58 52 43 46 58 59 48 41 48 53 52 54 58 58 55 52 43 34 33 35 39 46 52 53 51 48 45 45 46 48 52 53 52 53 57 60 63
70 44 17 7 6 6 12 24 33 36 35 37 43 54 62 65 64 60 54 52 57 63 60 52 46 44 47 52 53 49 45 43 43 42 39 36 35 31 31 43 51 42 34 37 42 45 46 43 44 52 55 47 43 51 57 52 41 36 40 45 45 45 48 49 48 46 39 31 27 27 30 37 44 47 43 38 35 35 35 36 39 41 41 41 43 48 56
68 40 14 6 6 6 12 24 32 35 35 35 39 49 59 66 67 64 58 53 55 60 61 56 48 45 48 50 48 46 47 47 45 43 41 39 37 33 30 35 38 33 31 37 39 37 36 34 35 44 49 45 43 45 40 34 33 34 34 36 38 38 40 42 41 38 34 29 25 24 26 32 40 42 39 34 31 30 29 29 31 33 34 34 34 36 45
65 35 11 5 7 8 15 25 32 35 36 36 37 44 53 61 66 65 61 55 54 57 58 54 48 46 46 44 42 44 48 47 44 42 40 38 38 36 33 30 28 28 35 40 34 25 25 24 20 26 34 30 22 22 25 27 30 32 32 33 35 35 36 37 35 32 29 26 25 24 24 28 34 38 37 34 32 30 28 28 28 30 30 31 31 34 43
61 29 9 7 8 10 18 27 34 37 37 36 37 41 48 56 62 63 61 57 55 56 56 52 50 49 44 39 40 46 48 46 46 45 42 39 40 37 33 31 27 25 31 36 28 21 29 30 19 20 32 29 15 16 27 30 28 30 34 34 33 33 34 33 31 28 25 23 24 25 23 24 29 33 35 34 32 30 29 28 28 29 30 30 32 38 48
57 24 7 7 10 14 23 32 38 40 38 37 38 40 44 50 56 59 59 57 55 55 55 52 51 50 42 35 39 48 49 46 48 48 43 39 38 35 32 32 30 25 29 34 27 20 27 32 25 27 36 29 12 13 28 33 31 32 35 35 32 33 34 32 30 27 23 22 23 24 22 22 25 29 31 32 31 29 28 28 28 31 34 35 39 46 56
54 20 6 8 12 18 28 35 41 44 41 37 37 38 42 49 54 56 57 59 58 56 54 52 52 53 47 36 36 44 48 45 45 46 43 40 38 36 35 35 31 26 28 30 24 19 23 29 31 33 31 17 4 7 21 31 33 34 33 33 33 34 34 33 31 26 22 21 24 24 22 22 24 28 30 31 30 30 30 29 31 35 41 46 51 56 63
51 19 7 10 14 23 34 40 43 47 46 41 38 38 39 46 53 55 56 59 60 58 54 51 52 54 51 41 36 40 45 46 45 46 46 42 38 37 37 35 31 29 28 24 20 23 28 30 33 34 25 10 3 5 10 17 26 32 33 33 33 32 32 31 29 25 23 25 27 25 23 23 25 28 29 30 31 31 31 31 34 40 48 56 62 66 71
48 18 7 12 19 29 39 42 43 48 52 50 47 46 43 44 50 57 59 59 58 56 54 53 52 52 49 43 38 39 43 45 44 45 46 44 40 39 39 35 32 29 25 19 21 30 34 32 31 30 21 9 5 6 5 6 11 18 24 28 31 32 32 32 30 29 30 30 29 26 24 24 26 27 27 29 31 32 32 33 37 44 54 62 68 71 76
44 15 7 16 27 37 45 47 50 56 59 52 47 50 51 46 45 53 60 59 56 56 55 53 53 54 50 44 40 40 44 46 46 46 46 44 41 39 37 34 31 27 22 21 26 31 30 27 27 26 20 11 7 7 8 6 4 5 9 14 20 24 28 32 34 34 34 32 30 27 26 26 27 27 27 28 31 32 33 37 40 44 53 63 70 74 80
40 13 9 21 35 47 58 63 62 63 65 61 54 55 59 56 51 54 59 57 54 56 56 55 55 56 54 48 44 44 46 48 48 47 44 42 40 38 35 32 29 25 23 25 28 26 24 25 26 25 21 16 10 6 7 8 7 6 4 4 7 12 18 24 30 35 37 36 35 33 31 29 28 28 29 31 32 33 36 42 45 46 51 61 70 76 81
35 13 13 28 42 52 64 74 74 71 72 72 65 61 66 68 63 57 53 51 51 55 57 56 57 59 57 51 47 47 48 49 49 47 44 42 40 37 31 27 26 26 27 28 26 22 22 25 26 23 21 19 15 10 8 7 7 7 7 5 4 4 7 12 20 29 34 37 38 38 36 34 32 32 33 34 35 36 39 44 49 53 58 67 76 82 87
31 14 18 34 45 52 62 75 82 80 76 70 60 54 56 60 58 54 51 52 54 57 57 57 58 59 57 52 48 48 50 50 49 48 45 41 38 35 30 26 26 28 28 27 25 23 25 26 23 19 21 24 22 19 16 13 9 7 8 7 6 4 3 5 12 20 28 35 38 40 39 37 36 36 36 36 36 39 43 47 53 60 68 76 84 91 96
27 17 24 35 44 54 64 73 79 78 73 68 63 59 55 55 57 60 61 60 58 59 60 58 57 57 55 52 49 49 50 49 48 47 44 41 37 34 30 28 27 26 24 24 25 28 30 27 19 15 21 27 27 25 25 22 17 13 9 7 7 7 5 2 5 13 23 31 36 39 40 40 39 38 38 38 37 40 48 54 58 63 72 79 86 92 96
27 19 27 35 41 50 59 67 77 82 78 71 69 68 65 63 63 64 65 65 64 64 63 61 58 57 57 54 49 47 48 47 45 45 44 41 38 35 31 29 28 26 25 26 29 31 30 23 14 13 21 27 28 28 29 25 21 20 16 10 7 8 7 4 3 6 15 26 34 37 39 41 41 40 42 42 41 46 58 65 64 67 79 90 93 93 94
29 20 23 33 46 54 54 59 74 86 84 77 74 74 73 71 69 66 64 64 64 64 63 62 61 60 58 55 51 50 49 47 45 43 42 41 38 36 34 32 30 28 29 31 32 32 28 20 14 15 21 24 27 31 32 26 20 21 22 17 10 7 7 7 5 2 5 17 29 35 37 40 42 45 48 50 50 58 70 75 72 74 87 97 98 95 93
30 21 19 31 52 65 65 67 81 92 92 87 83 79 75 74 74 70 65 62 60 60 61 61 60 59 58 56 53 52 50 47 45 44 44 42 40 38 36 34 31 32 35 35 34 31 26 19 16 21 27 29 30 33 32 25 20 20 23 23 18 10 6 7 8 4 2 8 19 28 33 37 39 43 48 53 56 65 76 84 86 90 95 97 94 91 89
30 23 19 23 39 54 62 69 78 85 88 88 84 79 76 76 75 72 69 65 62 61 59 56 54 56 58 57 53 51 50 49 47 45 44 42 39 37 37 37 36 36 38 38 37 35 29 21 20 28 35 37 36 35 32 27 23 21 21 24 23 16 8 6 8 7 3 3 8 15 25 32 36 39 44 49 57 68 79 86 92 97 99 98 97 95 92
Wind_Speed
19 18 19 20 20 20 18 17 17 17 17 17 16 16 15 13 11 11 11 11 10 9 8 9 11 14 16 14 10 9 8 8 12 13 16 17 16 14 16 18 17 17 18 17 19 18 16 15 13 14 19 13 10 23 32 28 26 26 21 17 21 19 15 14 16 17 16 11 13 20 19 18 22 25 24 23 22 23 21 14 13 18 18 12 9 5 6
20 21 22 23 22 21 20 18 17 17 16 16 16 16 16 14 13 13 13 12 11 11 12 13 16 17 17 15 13 11 10 12 14 14 16 16 14 14 16 17 18 20 19 17 19 16 12 12 11 14 19 13 8 20 32 32 29 27 21 19 21 18 14 16 15 13 14 12 13 19 22 21 22 23 24 23 21 20 20 15 11 15 19 19 14 8 8
20 21 22 24 24 24 23 21 18 17 16 15 16 15 15 15 14 14 13 11 12 15 16 18 19 18 16 15 14 11 9 11 15 17 19 17 15 16 16 16 22 25 20 16 16 14 11 12 13 15 16 11 10 21 32 33 29 25 20 19 21 16 13 17 15 10 11 12 11 17 22 22 21 20 22 23 21 21 21 17 14 13 15 19 19 13 12
17 20 21 23 25 25 25 24 21 19 16 15 14 13 14 15 15 16 15 11 13 17 17 17 17 14 13 13 12 11 9 9 14 19 21 20 18 19 18 18 24 26 20 16 16 13 11 12 15 17 13 8 14 24 30 31 27 24 23 22 20 14 13 17 15 11 12 13 11 13 17 20 21 20 21 23 23 23 22 20 18 16 13 17 20 16 14
16 18 20 21 22 23 24 26 26 23 20 17 15 12 12 13 14 17 17 14 16 17 14 14 14 12 13 13 12 12 10 10 13 16 20 21 20 20 20 21 24 24 20 16 15 14 14 14 16 17 12 10 17 26 29 28 24 26 27 24 19 13 13 17 14 7 6 8 8 11 14 19 21 20 21 22 23 24 24 23 20 16 13 15 17 17 15
14 16 17 17 17 19 21 24 26 27 26 24 20 16 14 14 14 15 16 15 16 16 13 12 11 11 13 14 14 13 10 10 12 14 18 20 20 18 18 21 24 24 21 17 15 15 15 14 15 14 12 14 20 25 26 24 23 25 25 23 20 14 12 17 16 8 3 5 7 9 12 15 18 20 22 22 23 25 26 26 21 17 15 12 12 17 19
13 15 16 15 15 17 20 23 26 28 29 28 27 22 18 16 15 15 15 14 14 14 12 11 9 10 12 13 14 13 10 12 14 15 17 17 16 17 17 21 24 25 22 18 16 15 14 14 14 14 15 16 19 22 22 20 23 24 22 21 21 15 11 14 17 12 7 7 8 8 8 9 13 18 21 22 24 25 26 26 24 21 18 13 10 14 17
13 14 15 16 16 18 19 22 25 27 29 29 30 28 23 19 17 15 15 15 14 14 12 11 9 8 10 12 12 12 11 13 14 15 17 17 17 19 19 20 22 25 24 20 19 18 16 16 15 16 17 16 17 17 17 19 23 22 19 20 22 18 11 12 15 12 10 12 10 6 6 7 10 15 18 21 23 24 25 26 25 24 22 17 13 12 15
12 14 14 14 16 17 18 20 22 25 27 28 30 30 27 23 19 17 16 15 16 17 14 11 10 9 10 11 11 11 11 11 13 14 15 17 19 20 20 19 19 22 23 21 23 23 19 18 18 17 16 15 16 14 13 19 24 23 19 19 24 22 12 9 14 13 12 13 11 8 7 7 10 14 16 19 21 23 24 24 25 26 23 20 20 18 17
11 12 12 12 13 15 16 18 20 23 25 26 28 30 29 27 24 21 18 16 15 18 17 13 10 10 11 9 8 8 8 9 11 11 11 14 18 18 18 18 16 16 19 22 25 25 21 18 19 19 17 15 16 13 11 17 23 23 21 19 22 23 14 9 14 14 11 13 12 9 8 8 11 15 17 18 19 20 22 24 27 27 23 22 23 21 19
9 10 11 11 11 13 14 17 19 20 23 25 27 28 28 28 27 27 25 21 17 16 18 17 12 9 9 7 5 5 5 7 8 8 9 11 14 15 15 15 13 12 15 20 22 24 23 19 17 18 18 16 14 12 11 14 18 21 23 21 19 20 17 11 13 14 12 11 11 9 9 9 8 11 16 19 20 22 24 27 29 27 25 25 24 21 21
8 9 10 10 11 12 13 15 16 18 21 23 24 25 26 26 26 27 28 28 24 17 14 16 16 13 10 7 5 4 3 4 5 7 8 10 11 12 11 11 11 12 13 16 18 20 22 20 18 18 18 16 14 10 9 12 16 19 22 22 19 20 19 14 12 13 11 10 11 10 9 9 6 5 10 17 21 23 24 26 28 27 27 26 23 22 22
8 8 8 9 9 11 12 13 14 16 18 20 21 22 23 24 25 25 26 27 28 24 16 14 16 16 13 9 6 4 4 4 4 5 7 8 8 9 9 8 8 9 11 13 16 18 19 21 20 19 18 15 12 9 5 8 15 19 20 21 20 21 21 16 13 13 9 10 13 10 5 6 7 5 6 11 18 23 25 27 28 28 27 26 24 24 23
8 8 6 6 8 9 10 11 13 14 15 17 19 20 21 22 23 24 24 24 26 28 24 20 18 17 14 11 8 4 4 5 5 5 6 6 6 7 7 6 6 9 12 12 14 18 19 20 19 18 16 13 10 8 7 7 11 16 19 22 21 20 20 18 15 14 11 10 14 12 5 4 8 9 8 8 12 18 22 23 24 25 26 26 26 27 26
8 8 7 5 6 8 9 10 11 12 13 14 15 17 18 20 21 21 22 23 24 26 27 25 23 20 15 11 8 4 3 6 7 7 5 5 5 5 5 6 7 11 15 15 17 19 18 17 18 17 15 14 12 10 8 8 9 11 15 22 23 20 18 17 15 15 15 13 13 12 9 8 10 11 9 6 6 9 13 16 17 21 25 25 25 27 27
9 8 7 5 5 6 8 9 9 10 10 11 13 15 15 17 18 18 19 21 22 23 23 23 23 23 18 12 8 6 3 5 8 8 5 5 5 5 5 6 6 9 14 17 19 20 16 14 16 16 14 14 13 10 9 9 9 8 10 17 23 22 18 16 15 15 16 16 14 12 12 11 10 10 8 6 6 4 6 10 14 18 21 22 23 25 26
10 8 7 6 4 4 6 8 9 9 9 10 10 12 13 14 15 16 17 18 18 19 20 21 23 24 21 13 8 7 6 6 7 8 7 6 7 6 5 5 6 8 12 15 14 13 13 12 13 13 13 14 13 11 10 11 9 7 9 13 18 20 17 17 17 15 15 17 16 14 14 11 10 11 10 10 9 6 6 8 8 10 16 19 20 23 23
11 10 8 8 6 4 4 6 8 8 9 9 9 9 11 13 13 14 15 16 16 16 18 20 21 23 22 16 9 7 8 7 7 6 5 6 7 7 7 6 5 6 9 11 9 9 11 11 10 9 12 15 13 9 10 11 9 8 11 13 14 17 17 17 19 17 16 17 17 16 15 13 11 11 11 10 10 9 10 10 4 3 11 17 19 20 22
12 12 10 9 8 5 4 4 6 7 8 9 9 9 9 10 11 12 13 15 15 14 15 16 17 20 22 18 13 10 9 8 7 6 4 3 5 7 7 6 6 6 7 8 7 7 8 9 8 7 9 12 11 8 8 11 10 9 11 12 13 15 16 16 19 18 16 17 17 16 15 16 16 15 13 11 11 9 9 11 8 4 8 15 18 21 22
14 14 13 11 10 8 5 4 5 6 7 8 9 10 9 9 10 11 12 13 13 12 13 14 14 16 19 19 18 17 13 8 6 5 4 2 3 5 4 4 6 7 7 6 6 6 6 6 6 7 7 8 10 8 7 9 10 10 12 12 11 13 15 15 18 19 16 15 16 14 11 12 16 19 17 15 14 11 8 10 12 10 8 10 14 19 21
14 15 15 14 13 11 8 6 5 5 6 7 9 10 10 9 9 10 10 11 11 10 11 13 13 13 15 17 19 19 16 11 8 5 4 3 3 4 3 2 4 6 7 7 6 7 6 5 5 5 5 6 9 8 5 6 8 9 12 12 9 10 13 13 14 17 17 15 15 14 12 11 13 18 20 19 17 15 13 12 12 12 11 9 10 13 17
14 15 16 16 15 13 11 9 7 6 6 7 8 9 10 10 10 9 8 9 10 9 9 11 11 10 12 14 14 16 15 13 11 9 7 5 3 3 3 2 3 5 8 10 9 8 7 6 4 4 3 4 6 7 6 6 6 6 9 11 9 9 13 13 11 13 18 18 14 14 16 16 14 14 17 18 18 16 14 13 13 14 14 13 12 11 13
14 15 16 17 17 16 14 11 9 7 7 7 7 9 10 10 10 9 8 7 8 7 7 8 8 7 9 11 12 12 13 12 10 8 8 6 3 3 3 2 1 2 7 10 10 10 8 6 5 4 3 3 4 5 7 7 5 5 6 9 11 12 14 14 12 13 18 21 19 18 18 19 18 15 13 16 18 18 15 13 13 14 16 17 14 11 12
13 15 16 17 17 17 16 14 12 9 8 7 7 8 10 11 10 9 8 7 6 4 4 7 7 5 5 8 10 10 11 11 9 6 4 4 3 1 3 3 2 1 2 3 6 8 8 7 6 5 3 4 5 5 7 7 7 6 6 7 10 13 14 14 15 15 14 15 19 22 20 19 19 18 17 17 18 19 18 16 15 14 15 17 15 12 12
13 14 16 17 17 18 17 16 14 12 10 9 8 8 10 11 11 9 8 8 7 4 3 4 7 6 4 5 7 8 8 9 10 7 3 3 3 2 1 3 3 2 4 4 4 6 8 7 5 3 3 5 5 5 6 7 8 8 6 6 8 11 12 13 16 18 15 11 14 19 19 18 18 19 20 20 20 20 20 18 16 16 16 17 17 16 17
13 14 16 17 17 17 17 17 16 14 12 11 10 9 9 10 11 9 8 8 7 4 2 2 4 5 3 3 5 6 7 8 9 9 5 2 3 2 1 3 3 3 4 4 4 5 6 6 5 4 3 5 5 5 6 8 10 10 9 9 10 11 10 11 14 17 17 15 15 15 15 16 17 17 17 18 18 18 18 16 16 17 18 18 18 19 21
14 13 15 17 17 18 17 17 17 16 14 13 12 10 9 10 10 8 7 7 8 6 2 1 2 2 1 1 3 4 5 7 8 9 8 2 3 3 2 4 5 4 4 4 4 4 4 3 4 4 4 5 5 5 6 7 9 9 9 11 12 11 10 12 13 13 13 15 17 15 11 12 15 17 15 14 14 14 14 14 15 16 16 16 16 17 19
15 14 14 16 17 18 18 17 17 17 16 15 15 12 10 10 10 7 6 6 7 7 5 2 1 1 1 1 3 4 5 6 7 7 7 5 1 2 3 4 6 7 6 5 5 4 4 3 3 4 4 3 3 4 4 4 5 5 7 9 10 10 11 12 11 11 13 15 18 19 16 15 17 17 16 16 15 14 14 15 15 15 15 15 16 16 17
15 14 14 15 16 17 18 17 16 17 17 17 16 15 12 10 9 7 6 6 6 7 6 3 0 1 1 2 4 5 5 5 6 6 6 5 4 2 2 4 6 8 8 7 6 6 4 4 4 4 3 3 3 3 2 2 3 4 6 7 8 10 12 13 12 13 14 15 16 18 20 21 21 20 20 20 20 19 19 18 18 18 18 18 19 19 20
16 15 14 15 16 17 18 17 16 16 16 17 17 16 14 12 10 8 7 6 6 6 6 2 1 2 2 2 3 5 5 5 5 5 5 4 4 4 2 1 5 8 9 8 7 7 5 4 4 4 4 4 3 2 2 3 3 4 5 6 6 6 8 11 12 13 13 12 13 14 17 19 21 22 23 24 25 25 25 24 23 23 22 22 23 23 23
16 15 14 14 16 16 17 18 17 15 16 17 17 16 15 14 12 9 8 6 6 6 5 2 1 2 2 2 1 3 5 4 4 4 5 4 3 4 4 2 1 5 8 9 8 6 5 5 4 4 4 4 3 3 4 4 4 5 5 5 4 4 4 7 9 10 10 10 10 11 12 13 15 17 18 20 22 23 24 24 25 25 25 26 27 26 25
16 15 14 14 15 16 17 17 17 16 15 16 17 17 17 16 13 10 9 7 6 6 5 3 1 1 2 1 0 1 2 4 4 4 5 5 5 4 3 3 2 2 5 7 7 6 7 7 5 4 4 5 5 5 5 5 6 7 7 5 4 4 4 5 7 8 9 9 9 9 10 11 11 12 13 14 16 18 20 21 22 23 24 25 26 26 25
15 15 14 14 15 16 17 17 17 17 16 16 16 18 18 17 14 12 10 8 7 6 5 4 1 1 2 2 0 0 0 2 4 3 4 6 6 4 4 3 2 2 3 5 7 8 8 7 6 6 6 7 7 7 7 7 9 9 8 7 6 5 5 5 5 6 6 7 8 9 10 10 10 11 11 12 14 16 17 19 19 20 21 23 23 24 24
15 15 14 14 14 16 16 16 17 17 16 16 17 18 19 18 16 13 12 10 8 6 5 4 2 1 3 2 0 1 1 1 3 3 2 4 4 4 3 3 2 2 3 4 5 7 8 8 8 8 8 9 10 10 9 10 11 11 10 9 8 7 6 6 6 6 6 6 7 9 9 9 10 11 11 11 13 14 15 17 17 18 19 21 22 23 23
15 15 14 13 14 15 16 16 16 17 17 17 17 17 18 18 16 15 13 11 10 8 7 5 3 1 2 1 0 2 2 1 1 1 1 3 4 4 3 2 1 2 2 3 4 5 7 8 8 7 9 11 11 10 9 11 12 12 11 10 10 8 8 8 8 7 7 6 7 8 9 10 11 11 12 12 12 13 14 15 16 17 17 18 19 21 21
15 14 13 13 14 15 15 15 16 17 17 17 16 16 17 18 17 16 15 13 12 10 9 7 4 2 2 2 2 1 1 1 1 1 1 2 3 4 5 3 1 3 2 1 2 4 6 7 6 6 8 10 10 9 10 13 13 12 12 11 11 10 9 9 9 8 8 7 7 7 9 10 11 11 11 11 12 12 13 14 15 16 17 17 18 19 20
14 14 12 12 13 14 15 15 16 16 17 17 16 16 16 17 17 18 17 16 14 12 10 9 6 3 3 5 4 3 0 2 2 2 1 1 1 3 4 3 1 2 2 2 2 3 3 4 4 5 6 8 8 11 13 14 14 14 13 12 11 11 10 10 10 9 9 8 7 6 7 9 10 11 10 10 10 11 12 13 14 15 16 17 17 18 19
14 13 11 11 12 14 15 15 15 15 16 17 17 16 16 16 17 19 19 17 16 14 12 9 6 3 5 7 6 4 2 1 2 2 2 2 1 2 4 3 2 2 1 2 3 3 1 1 2 3 4 6 7 10 12 13 14 15 13 12 12 11 10 10 10 10 10 9 7 6 6 7 9 10 10 10 10 10 11 12 13 14 15 16 17 17 18
13 12 11 11 12 14 14 14 14 15 16 17 17 16 15 16 18 19 19 19 17 15 13 10 6 4 5 7 6 5 5 2 1 2 3 2 1 1 3 4 4 3 1 2 3 3 2 2 2 1 2 6 9 9 9 10 12 13 13 13 13 11 10 10 11 10 10 9 7 6 6 6 8 9 9 9 9 10 10 11 12 13 14 15 15 16 17
12 11 10 11 12 13 14 13 13 14 16 17 17 16 16 17 17 18 18 18 18 17 15 11 7 5 6 7 8 8 7 4 2 2 2 2 1 2 2 4 5 4 1 1 3 3 1 1 1 2 3 7 9 8 6 5 7 10 12 12 11 10 10 10 11 10 9 8 7 7 6 7 7 8 9 9 9 9 10 11 12 12 13 13 14 15 17
12 10 10 11 12 13 13 13 13 15 16 17 17 17 17 17 18 18 17 16 15 16 15 12 8 7 7 8 9 10 8 6 4 4 3 3 3 3 3 5 6 4 1 2 3 3 2 1 1 3 5 7 7 7 6 3 2 5 8 9 9 9 9 10 10 9 8 7 7 7 7 7 7 8 8 9 9 9 10 11 11 11 12 13 14 15 17
11 10 10 10 11 12 13 14 14 15 16 17 18 18 17 17 17 18 18 16 15 15 14 12 10 9 8 8 10 11 10 8 6 4 4 4 4 4 4 6 6 3 2 4 3 3 1 1 1 4 6 7 5 5 6 4 2 1 3 5 6 7 7 7 8 7 7 6 7 7 7 7 7 8 8 8 8 9 10 11 11 12 12 12 14 15 16
11 10 9 10 11 12 13 15 16 16 16 17 18 17 16 17 17 16 16 17 17 16 14 11 9 8 7 7 9 10 10 9 7 5 5 5 5 5 5 6 4 3 3 4 2 1 0 1 0 3 6 6 5 5 5 4 3 2 1 1 2 3 4 5 6 6 6 6 7 7 7 6 7 7 8 8 8 8 9 10 11 11 12 13 14 15 16
10 10 9 10 12 13 13 15 17 17 17 18 20 18 16 17 18 16 14 15 17 18 16 13 11 8 7 6 7 9 9 9 8 7 6 6 5 4 4 4 4 4 4 3 1 1 2 1 1 3 5 6 5 5 5 4 3 3 2 1 1 1 2 3 4 5 6 7 7 7 7 6 7 7 7 7 8 8 8 9 10 11 12 13 14 16 17
10 10 11 11 13 14 13 14 18 19 18 17 17 16 13 12 15 16 16 16 16 15 15 15 14 12 10 7 6 7 9 9 8 7 6 5 5 4 4 4 5 5 4 2 1 2 1 1 3 4 4 5 5 5 4 4 4 4 3 3 2 2 2 3 3 5 6 7 7 7 7 7 7 7 7 6 6 7 7 8 10 11 12 13 15 16 17
10 11 12 12 14 16 15 13 14 17 17 15 16 15 13 12 14 16 17 17 16 13 12 13 14 14 12 10 8 8 9 9 8 8 7 5 5 5 5 5 5 4 2 2 2 1 0 2 3 4 3 4 5 5 4 5 5 4 4 4 3 3 2 2 2 3 6 7 7 7 7 7 6 6 6 5 5 6 7 8 9 10 11 13 15 15 15
11 12 13 13 14 16 17 14 12 14 16 17 18 18 16 16 16 16 15 15 15 14 12 12 12 13 13 12 9 8 8 9 9 9 7 6 5 6 5 4 4 3 3 2 2 1 1 3 3 3 2 3 4 5 6 6 5 4 4 4 4 4 3 2 2 3 4 6 7 8 7 7 6 6 5 5 5 6 7 9 10 10 11 13 15 16 15
12 13 14 14 14 15 17 16 13 13 15 17 17 16 16 16 16 15 14 14 15 14 14 13 12 11 11 11 11 9 9 10 10 9 8 7 6 5 4 4 3 3 3 2 2 1 2 3 3 3 2 2 3 5 7 7 7 5 4 4 4 4 4 3 2 2 3 4 7 8 8 7 7 6 6 5 5 6 8 10 11 11 12 13 15 16 17
14 14 15 15 14 14 16 17 14 12 12 14 14 15 16 16 16 15 14 14 14 14 14 15 13 11 9 10 11 11 11 11 10 10 10 9 7 5 4 4 3 3 2 3 2 2 3 3 2 2 3 3 3 4 7 8 8 7 5 4 4 3 3 3 3 3 3 3 5 8 8 8 7 6 6 6 6 6 8 11 12 12 13 15 15 14 15
15 15 16 15 13 13 15 16 14 10 10 12 14 14 15 15 15 15 14 14 14 14 14 14 14 13 11 10 10 10 10 12 12 11 10 10 9 7 6 5 4 3 3 3 3 3 3 3 2 1 2 3 3 4 6 9 9 8 6 5 4 3 3 3 3 3 3 2 3 5 7 8 8 7 7 8 8 8 10 12 13 13 15 17 16 15 14
15 16 16 16 15 13 13 15 14 11 10 11 14 15 16 15 14 13 13 13 12 12 12 13 14 14 13 12 10 9 9 11 13 12 10 10 10 9 7 6 4 4 3 3 3 2 2 2 1 1 1 1 2 3 6 9 10 9 7 5 4 3 3 2 2 2 3 2 2 4 5 7 8 9 9 10 10 10 12 14 14 14 16 17 17 16 15
15 15 15 16 17 17 16 16 17 16 15 15 16 17 16 15 14 13 12 11 10 11 12 12 13 12 12 13 13 12 10 9 12 13 13 12 12 10 7 5 5 4 3 2 2 2 3 2 1 2 0 1 2 3 7 9 10 10 9 6 4 4 3 2 2 2 2 3 3 3 4 5 7 8 9 10 11 11 13 14 15 16 17 18 18 18 18
Wind_Direction
6 7 4 0 357 356 356 355 352 349 351 351 351 351 352 355 353 353 354 350 349 343 335 338 335 337 350 359 6 13 25 69 98 113 114 115 121 125 138 143 137 145 150 148 152 150 151 164 166 168 171 162 173 187 182 176 177 178 176 176 174 173 176 171 169 179 187 192 199 201 203 203 206 210 208 207 207 203 207 213 197 199 204 196 201 210 172
15 14 11 6 3 0 357 355 353 351 350 349 350 349 346 346 348 353 352 346 348 348 339 338 344 355 14 34 50 59 78 106 113 113 111 113 121 131 139 144 145 145 141 143 152 149 144 155 162 166 171 178 196 189 184 181 180 182 181 179 178 174 179 180 167 169 187 196 204 205 204 206 209 210 208 209 208 203 207 213 201 201 206 202 208 218 184
18 17 15 13 13 12 5 0 357 355 355 353 353 353 350 352 357 3 0 352 355 359 351 350 359 16 38 51 62 75 93 112 112 111 116 119 124 133 138 143 150 146 136 138 148 146 142 148 154 156 161 184 194 178 180 183 181 184 184 182 183 181 185 189 183 180 191 194 201 202 200 204 209 210 208 208 207 202 202 203 200 205 209 205 212 216 191
20 19 20 18 20 21 18 16 13 8 5 3 1 2 1 360 2 7 7 2 8 14 14 16 22 34 44 48 69 87 92 113 116 112 117 122 124 133 136 137 147 149 140 137 143 142 138 138 147 152 148 160 168 166 175 181 181 188 190 183 185 187 189 195 198 202 204 204 205 198 193 197 203 207 208 208 209 207 204 208 211 214 213 209 214 214 195
21 21 24 23 23 25 24 26 26 23 20 17 14 18 19 13 9 9 8 7 19 31 39 40 39 41 41 52 80 86 78 98 109 106 113 121 126 134 138 139 147 154 150 141 142 144 140 130 138 150 146 139 151 160 170 177 184 195 195 184 182 188 192 198 204 209 194 184 184 185 190 198 202 205 207 207 209 209 210 215 216 213 212 211 208 205 201
20 18 23 28 29 28 27 29 29 29 29 26 26 30 31 26 24 23 19 18 26 36 48 51 47 44 45 60 77 73 68 90 101 103 109 118 127 131 139 148 152 158 159 149 142 145 146 136 131 141 145 138 144 155 165 175 188 195 193 186 185 191 195 197 202 210 181 157 170 184 195 204 208 210 211 211 210 211 214 216 216 212 212 210 198 200 208
15 15 23 34 37 35 32 30 29 30 30 29 29 34 40 44 48 45 39 37 37 37 44 53 51 44 43 56 71 73 76 85 89 97 101 110 128 133 142 154 156 161 164 159 151 150 154 153 142 138 142 140 145 156 166 178 185 184 184 186 189 193 196 195 199 209 213 192 180 177 188 207 215 216 218 217 215 215 215 215 216 214 214 215 205 200 206
14 21 28 36 39 37 34 31 31 29 29 30 31 36 45 52 55 53 46 41 36 34 40 50 49 41 39 52 70 78 77 76 84 96 98 101 117 129 140 150 155 163 167 165 165 161 158 165 161 145 141 143 149 158 170 177 176 176 183 190 191 191 193 194 196 206 218 210 202 198 204 216 220 221 223 221 219 219 217 217 216 214 215 219 215 208 210
15 26 33 37 37 34 32 32 33 32 30 30 32 36 43 48 48 46 42 37 31 30 37 48 50 44 42 53 70 74 69 72 83 93 98 103 112 125 139 146 151 164 170 172 176 172 162 165 169 157 147 150 154 157 169 176 175 177 183 191 194 196 197 198 199 208 216 212 217 230 235 243 240 231 226 221 220 220 218 217 214 212 213 217 216 218 221
13 24 32 38 37 32 30 31 33 34 32 31 32 34 39 43 42 40 41 40 32 29 35 41 46 48 44 46 62 69 72 85 92 92 95 102 109 121 138 143 145 161 174 180 184 181 170 163 168 168 161 156 155 150 160 176 181 182 181 186 195 198 200 197 198 209 214 209 219 235 239 248 242 232 227 223 221 220 217 217 218 217 215 216 218 220 222
6 16 25 34 37 32 30 32 33 33 33 32 31 32 33 36 38 38 41 44 39 33 35 38 45 56 52 49 62 71 85 104 107 105 100 97 107 120 132 138 141 154 173 184 188 187 178 167 166 170 167 160 153 145 149 171 184 186 184 186 190 194 201 200 195 206 210 204 216 233 235 236 229 222 224 224 223 224 223 225 225 222 220 219 219 219 220
355 7 21 30 33 31 30 32 34 34 34 33 30 30 30 32 34 34 36 40 40 39 38 36 39 46 46 54 79 93 112 121 116 119 114 104 110 121 128 139 146 148 164 178 182 182 180 176 170 169 171 169 161 150 145 164 180 185 187 191 191 191 198 201 198 207 208 196 204 222 231 229 225 227 227 224 224 224 225 227 226 222 222 223 221 218 219
338 352 15 26 28 27 26 30 33 33 33 34 32 29 28 28 31 31 32 35 37 38 43 43 39 38 36 43 68 101 134 143 141 141 135 120 115 120 130 140 144 152 168 176 171 165 167 173 173 171 174 174 166 165 164 168 180 185 187 194 196 194 197 199 200 208 206 194 204 217 230 221 225 252 251 229 223 221 220 224 225 222 222 222 222 221 220
319 333 354 17 24 24 22 26 30 29 29 32 32 30 27 24 27 28 28 31 34 35 39 42 39 35 32 32 42 72 132 148 157 166 159 144 128 124 125 111 109 141 157 158 154 148 148 158 165 166 172 173 165 173 187 182 185 189 192 197 199 197 198 199 201 208 211 209 213 219 239 245 237 249 255 241 228 221 219 223 227 225 221 221 222 223 221
294 313 328 354 17 22 20 22 27 26 24 26 27 29 28 24 24 26 25 26 30 32 32 32 32 30 28 28 34 47 119 146 150 158 169 173 163 146 134 114 109 132 139 135 140 144 142 149 158 160 170 179 174 171 179 183 190 197 199 200 200 199 200 202 204 208 214 223 223 220 231 243 235 233 238 237 231 223 217 222 229 226 220 219 221 224 224
278 297 311 326 358 18 16 17 22 24 23 22 20 22 25 24 23 24 22 22 26 29 27 24 24 25 24 25 33 47 84 133 138 137 146 175 188 184 160 141 133 134 130 129 140 147 144 150 162 163 168 176 171 164 169 174 180 192 195 195 200 203 203 206 211 209 209 219 227 226 229 234 225 222 232 234 226 214 207 219 229 228 222 218 220 224 226
272 282 295 301 322 3 9 6 12 18 20 20 17 14 16 19 19 21 21 20 23 26 24 22 21 21 21 24 37 56 78 112 129 131 141 166 185 198 191 166 158 149 133 128 138 151 152 155 163 165 169 172 168 168 173 169 167 178 178 180 193 201 201 206 215 215 210 216 228 232 228 226 219 220 234 243 231 215 205 212 217 223 226 225 224 225 225
267 271 281 286 293 321 349 354 1 7 10 13 12 6 5 9 11 14 18 18 19 22 22 21 22 20 21 28 45 61 75 98 120 129 137 159 181 196 201 192 182 168 150 141 143 155 160 160 159 161 171 175 171 171 177 177 175 179 175 171 181 193 198 205 213 218 215 215 227 234 229 227 226 222 225 228 220 215 221 222 212 204 221 222 221 221 223
263 264 269 275 279 289 307 330 345 355 358 358 358 356 357 359 2 7 15 18 20 21 19 19 23 23 22 31 51 65 71 88 106 108 101 135 190 200 201 204 209 201 179 167 160 156 161 168 168 160 165 176 178 178 182 184 184 183 179 177 181 189 195 202 210 217 219 218 226 236 234 229 228 226 223 220 216 222 229 223 219 224 217 212 211 213 215
259 260 262 266 270 275 281 295 316 334 343 345 347 351 352 353 357 4 10 15 20 23 18 15 22 26 23 28 45 58 61 68 87 101 95 105 183 188 178 197 217 214 201 190 185 175 160 163 173 163 156 174 184 181 180 186 190 189 186 187 192 196 198 204 209 213 217 218 222 231 237 229 225 226 228 227 225 233 240 226 218 216 207 203 209 212 212
256 257 258 259 263 267 271 277 290 306 325 334 338 344 348 351 356 359 1 8 15 20 18 15 17 24 26 28 40 51 55 58 69 82 84 89 142 163 154 178 212 211 205 196 193 191 178 169 178 173 165 181 187 184 183 188 197 203 201 200 206 208 210 214 215 215 218 220 220 226 231 228 225 228 231 231 229 231 241 244 231 214 200 193 201 212 216
256 254 256 256 259 261 263 265 274 286 305 321 328 334 340 343 346 348 353 6 12 12 13 13 10 18 27 30 38 47 52 56 61 66 70 79 117 145 139 180 215 219 220 210 194 185 181 173 171 174 180 186 190 201 212 203 203 223 221 214 217 221 219 217 216 223 229 228 225 227 229 228 229 232 235 234 230 227 231 236 231 221 211 199 195 212 222
261 254 254 254 255 257 258 257 260 269 285 306 318 323 329 334 337 338 344 -0 11 11 11 12 10 15 23 26 34 43 47 49 53 60 68 69 84 131 130 144 189 242 239 217 185 165 165 169 166 169 192 197 196 219 228 217 212 235 237 227 228 231 229 226 228 239 241 236 232 232 234 236 237 238 240 237 229 224 223 222 219 219 214 203 199 217 231
269 255 253 252 252 252 253 252 252 257 268 286 302 311 319 325 331 336 340 350 10 22 22 17 15 16 20 24 30 37 38 37 37 42 65 71 65 120 147 144 131 148 212 189 150 149 161 173 169 161 191 218 217 227 232 224 224 238 244 241 241 242 240 237 240 246 247 242 239 238 239 242 242 241 244 244 235 227 223 219 214 212 210 206 208 228 244
280 260 252 251 250 249 249 247 247 249 255 267 284 299 311 317 324 333 340 349 5 25 53 31 16 10 19 29 29 27 26 29 29 26 47 119 98 57 123 154 150 161 166 149 135 149 161 175 179 175 220 232 220 229 239 233 237 245 241 235 246 250 246 241 242 243 239 237 243 242 237 237 238 239 241 243 240 233 228 221 215 213 212 212 218 232 246
289 269 254 250 248 248 247 244 243 243 248 257 267 281 296 305 313 325 336 345 357 14 84 67 17 6 16 26 18 13 14 20 24 22 23 133 145 93 116 176 182 189 178 173 171 164 164 175 185 194 234 237 219 228 244 238 240 246 241 234 243 250 248 244 244 243 237 235 240 239 233 231 232 232 234 237 235 232 230 224 220 219 218 217 220 227 235
296 278 259 250 247 246 246 244 240 239 242 249 258 266 278 292 302 317 333 340 348 358 16 66 42 24 356 329 340 347 356 3 9 14 16 26 175 173 168 180 189 195 186 181 184 181 178 189 193 201 231 241 228 231 245 245 245 249 249 247 248 248 245 246 248 245 240 236 233 228 225 230 229 226 228 231 226 221 220 218 217 219 221 224 228 231 235
299 285 266 252 246 244 244 243 240 236 236 242 251 256 265 279 289 303 324 331 337 344 342 338 39 79 213 297 333 333 334 341 346 357 11 21 64 181 190 192 197 203 200 193 196 201 202 215 229 231 233 233 235 246 253 253 252 250 249 249 247 242 238 240 241 236 232 233 232 227 227 234 234 230 232 237 234 227 223 220 220 224 229 234 240 243 243
300 291 273 256 247 242 241 241 240 236 233 236 244 250 255 267 278 288 305 319 328 335 332 319 299 140 222 311 333 328 322 328 333 337 353 17 42 72 185 204 205 208 208 207 211 216 223 234 245 245 229 211 223 248 253 251 255 253 252 253 255 251 243 236 233 233 233 236 236 231 231 237 240 239 239 242 243 242 239 236 236 238 241 244 246 247 245
300 294 279 261 249 242 239 237 237 234 231 232 238 245 250 258 267 274 285 303 321 332 334 321 197 194 223 267 318 328 330 331 331 335 342 356 25 40 41 212 214 213 213 216 221 225 235 249 240 222 212 209 214 231 242 244 249 254 257 261 265 262 246 233 230 232 235 238 237 234 234 238 241 242 243 243 245 246 246 246 246 247 248 248 248 246 244
299 295 283 266 251 243 238 235 233 230 229 230 233 237 242 249 257 262 269 286 310 327 333 326 212 211 235 241 289 335 344 345 341 341 349 353 1 15 23 17 256 219 213 218 227 231 238 247 237 214 214 225 228 232 237 243 251 256 260 265 266 257 233 221 221 225 230 234 236 236 237 238 239 241 243 243 243 243 243 243 244 244 244 244 243 240 237
297 294 284 268 253 244 237 233 230 227 226 227 229 231 235 241 247 250 256 270 293 319 330 329 226 193 210 212 261 -0 10 15 12 6 6 6 1 352 352 359 349 258 217 218 227 234 238 244 243 231 228 237 245 249 248 248 251 253 255 258 256 248 230 216 214 218 223 227 228 230 232 234 235 238 239 238 237 237 236 235 236 236 236 236 236 234 232
295 294 285 269 254 243 237 232 228 225 224 225 226 228 232 237 240 242 247 258 274 298 318 321 291 203 183 184 237 323 17 22 26 31 11 357 357 354 344 339 338 305 252 231 231 235 239 244 247 245 244 246 254 262 261 254 253 256 259 260 256 252 247 235 227 227 229 228 228 230 230 229 229 231 232 231 230 231 232 232 232 233 233 233 232 231 231
294 294 285 269 253 242 236 232 227 223 222 222 223 225 229 233 236 237 239 246 258 275 293 303 291 225 174 164 267 269 239 3 32 50 14 351 4 15 -0 343 334 312 279 249 239 237 239 244 250 255 258 258 260 267 268 262 259 259 260 262 262 261 260 258 255 258 259 251 244 239 234 231 230 228 226 226 225 227 230 231 230 232 233 232 232 232 232
294 294 283 267 253 242 235 231 227 223 221 220 220 223 226 230 233 234 233 237 248 262 276 289 291 243 188 155 337 272 254 294 26 65 356 7 27 37 34 25 346 315 282 249 242 240 243 250 254 256 260 263 267 271 268 262 261 261 259 261 265 266 265 267 268 270 272 270 261 250 240 234 232 229 227 227 226 225 227 227 227 229 231 231 232 232 231
294 293 282 265 251 241 233 229 227 223 220 218 219 221 224 227 231 232 232 233 240 252 264 273 276 260 247 253 246 226 240 -0 3 327 346 19 25 28 40 53 302 297 310 288 267 254 251 255 254 252 260 267 269 264 257 256 260 261 258 258 262 263 264 268 270 271 273 274 270 259 245 235 232 229 228 228 228 226 227 228 228 229 231 232 233 232 230
293 293 279 261 248 239 232 228 226 223 219 216 215 217 221 224 228 231 233 234 237 243 253 260 262 254 243 242 230 200 154 2 356 344 343 349 335 6 33 51 296 304 354 358 316 294 267 262 258 252 261 268 265 261 260 259 258 257 256 256 257 258 258 262 266 267 268 269 270 265 251 237 231 229 227 228 232 232 231 231 230 231 234 236 236 234 231
292 289 274 255 243 234 228 226 225 221 217 213 212 214 218 222 225 230 233 234 236 241 245 250 256 252 234 235 231 219 231 298 14 16 333 311 310 348 8 14 345 338 349 292 302 325 340 307 288 265 268 283 286 280 273 262 252 249 249 250 251 252 255 259 263 264 264 263 263 263 253 239 232 230 230 232 236 238 238 237 234 234 235 236 235 233 230
289 284 267 247 236 229 225 223 222 218 214 211 209 210 214 218 222 227 231 233 235 240 243 245 248 248 237 233 229 226 231 239 50 14 323 312 292 313 339 346 343 349 352 281 314 353 11 314 314 340 320 314 316 311 293 269 250 240 239 241 245 250 254 258 261 262 262 261 259 258 254 244 236 233 232 234 236 238 240 241 238 236 237 236 232 228 225
286 278 259 241 231 225 221 219 216 212 209 207 206 208 212 215 218 224 229 232 235 239 242 242 239 238 234 226 220 223 229 224 204 237 278 302 291 294 335 343 340 346 357 272 318 2 39 278 320 19 337 317 323 331 322 284 244 229 231 238 243 248 253 258 261 261 259 257 257 258 257 249 239 235 234 235 237 240 240 240 237 235 235 233 227 222 220
282 270 250 236 226 220 216 213 209 206 204 202 203 206 210 213 217 221 224 228 233 237 239 237 233 234 234 224 218 221 223 220 218 229 254 286 296 301 323 330 333 343 314 274 322 12 64 112 357 351 326 319 331 353 1 355 222 218 228 235 241 246 251 256 259 258 254 252 254 257 257 248 237 234 235 236 239 241 241 239 235 231 228 225 220 217 214
275 262 245 233 221 215 212 208 202 200 199 198 201 207 210 213 217 220 221 221 225 231 235 234 231 234 237 228 220 220 222 225 232 240 252 270 283 297 310 320 330 337 279 289 329 20 61 92 10 345 333 332 343 1 14 31 68 171 221 231 239 246 250 254 258 257 255 254 253 253 252 244 236 235 237 239 241 244 242 237 232 227 222 217 213 210 208
266 253 240 227 216 210 208 204 199 197 196 196 199 204 207 210 214 217 220 223 225 226 229 229 224 225 231 227 221 221 223 225 230 235 239 251 271 297 312 316 317 299 289 312 359 39 265 238 313 341 345 351 356 358 9 30 53 68 94 210 233 241 245 252 259 263 262 259 254 250 248 244 241 241 242 241 243 247 247 242 233 225 219 215 211 207 203
256 242 229 219 211 206 202 200 199 198 199 200 202 202 205 211 214 214 216 223 225 225 225 224 219 216 222 224 220 220 222 224 227 232 236 245 264 289 301 293 287 293 306 329 352 269 256 269 321 340 354 2 1 357 4 17 28 39 45 39 344 296 274 266 263 260 257 252 247 243 241 243 246 248 247 243 244 248 249 244 236 227 220 215 210 205 199
245 230 220 213 207 201 196 197 200 202 204 205 205 204 206 212 214 213 215 222 224 224 224 224 222 222 225 223 214 214 216 216 217 221 226 237 258 272 268 269 286 304 317 313 272 252 283 350 333 325 342 359 1 359 4 9 13 19 22 17 7 349 327 303 274 256 249 246 241 235 234 238 242 244 243 244 247 249 246 240 234 230 224 215 206 201 196
235 222 214 210 206 201 197 196 200 204 207 209 207 204 203 207 210 213 217 221 222 220 218 218 219 220 221 217 213 214 213 209 211 220 226 233 247 256 260 272 288 297 291 270 257 239 307 325 298 285 305 347 359 -0 2 3 6 12 14 14 7 349 329 315 289 255 244 240 237 231 228 232 236 235 235 240 245 248 245 236 225 222 219 209 198 193 190
226 217 211 209 207 204 202 200 200 205 210 212 211 209 208 210 214 216 218 218 216 214 211 211 213 216 218 216 214 216 214 209 212 221 227 227 235 251 265 277 278 262 248 251 250 246 306 309 283 257 268 335 357 4 7 5 1 358 -0 4 3 358 344 319 289 265 248 238 232 226 224 226 226 225 227 234 237 239 238 228 216 208 204 197 189 186 186
219 214 210 208 207 205 204 205 206 210 213 214 214 213 211 212 214 216 214 212 211 209 208 209 210 214 219 217 213 212 215 215 216 223 226 225 231 247 258 260 257 248 237 229 225 248 306 307 279 240 235 293 341 2 12 13 5 354 343 339 346 355 357 343 310 287 265 238 226 221 217 215 216 218 222 228 230 227 221 216 212 204 196 190 189 190 192
217 214 212 209 208 207 206 204 204 207 212 213 212 211 211 212 216 216 214 211 209 208 209 211 210 211 219 222 217 216 219 219 218 222 225 224 225 231 232 236 250 250 231 227 242 275 304 310 292 233 223 251 301 345 -0 3 1 355 343 326 321 331 347 353 341 319 304 263 226 218 213 209 208 213 217 219 221 214 205 206 209 202 191 186 188 192 196
217 216 213 209 208 209 208 204 200 202 209 210 208 207 208 211 215 217 217 215 212 211 214 217 215 215 220 223 220 220 223 221 218 219 220 219 221 227 233 238 238 226 219 239 266 290 307 313 308 226 226 249 283 329 343 346 349 349 340 326 311 300 312 339 345 333 326 310 242 222 214 206 202 203 205 207 208 200 194 199 204 198 190 188 190 193 197
218 217 214 209 206 204 202 199 196 195 199 203 205 205 204 205 208 211 215 216 214 214 218 221 221 222 224 222 217 217 222 221 218 217 216 216 220 226 234 240 232 216 221 255 281 307 326 321 252 193 271 288 290 321 338 346 350 349 341 327 305 288 289 305 325 330 328 313 270 242 227 214 208 206 205 205 205 198 192 195 199 194 189 190 193 196 202
219 218 215 212 211 208 205 201 200 201 203 204 204 204 203 203 203 203 206 207 206 210 217 220 218 219 222 221 218 216 216 215 215 215 217 223 228 228 227 227 222 212 216 244 274 317 344 349 177 178 201 277 263 308 339 354 -0 0 358 349 324 297 287 287 296 313 321 316 299 277 257 238 224 215 210 208 206 200 194 195 198 197 195 195 199 203 207